TimeCDT,TemperatureF,Dew PointF,Humidity,Sea Level PressureIn,VisibilityMPH,Wind Direction,Wind SpeedMPH,Gust SpeedMPH,PrecipitationIn,Events,Conditions,WindDirDegrees,DateUTC
12:15 AM,60.4,59.9,98,29.98,10.0,Calm,Calm,-,N/A,,Clear,0,2013-05-08 05:15:00
12:35 AM,59.4,59.2,99,29.98,3.0,Calm,Calm,-,N/A,,Clear,0,2013-05-08 05:35:00
12:55 AM,58.5,58.5,100,29.97,2.5,Calm,Calm,-,N/A,,Clear,0,2013-05-08 05:55:00
1:15 AM,58.1,58.1,100,29.97,2.5,Calm,Calm,-,N/A,,Clear,0,2013-05-08 06:15:00
1:35 AM,57.9,57.9,100,29.96,4.0,Calm,Calm,-,N/A,,Clear,0,2013-05-08 06:35:00
1:55 AM,57.2,57.2,100,29.96,1.2,Calm,Calm,-,N/A,,Mist,0,2013-05-08 06:55:00
2:15 AM,56.8,56.8,100,29.96,4.0,Calm,Calm,-,N/A,,Scattered Clouds,0,2013-05-08 07:15:00
2:35 AM,56.1,56.1,100,29.96,0.5,Calm,Calm,-,N/A,Fog,Fog,0,2013-05-08 07:35:00
2:55 AM,55.4,55.4,100,29.96,0.2,WSW,3.5,-,N/A,Fog,Fog,240,2013-05-08 07:55:00
3:15 AM,55.0,55.0,100,29.96,0.5,Calm,Calm,-,N/A,Fog,Fog,0,2013-05-08 08:15:00
3:35 AM,54.5,54.5,100,29.96,0.2,SW,3.5,-,N/A,Fog,Fog,230,2013-05-08 08:35:00
3:55 AM,54.9,54.9,100,29.96,0.2,WSW,5.8,-,N/A,Fog,Fog,240,2013-05-08 08:55:00
4:15 AM,55.2,55.2,100,29.96,1.0,WSW,3.5,-,N/A,,Mostly Cloudy,240,2013-05-08 09:15:00
4:35 AM,55.2,55.2,100,29.97,3.0,WSW,3.5,-,N/A,,Clear,250,2013-05-08 09:35:00
4:55 AM,55.6,55.6,100,29.98,3.0,Calm,Calm,-,N/A,,Clear,0,2013-05-08 09:55:00
5:15 AM,55.9,55.9,100,29.98,4.0,SW,3.5,-,N/A,,Clear,230,2013-05-08 10:15:00
5:35 AM,55.4,55.4,100,29.99,4.0,West,3.5,-,N/A,,Clear,260,2013-05-08 10:35:00
5:55 AM,55.9,55.9,100,30.00,3.0,WSW,3.5,-,N/A,,Clear,250,2013-05-08 10:55:00
6:15 AM,56.3,56.3,100,30.01,4.0,West,3.5,-,N/A,,Clear,260,2013-05-08 11:15:00
6:35 AM,56.8,56.8,100,30.01,5.0,WSW,3.5,-,N/A,,Clear,250,2013-05-08 11:35:00
6:55 AM,57.6,57.6,100,30.02,7.0,Calm,Calm,-,N/A,,Clear,0,2013-05-08 11:55:00
7:15 AM,58.1,58.1,100,30.02,7.0,Calm,Calm,-,N/A,,Scattered Clouds,0,2013-05-08 12:15:00
7:35 AM,58.5,58.5,100,30.03,7.0,Calm,Calm,-,N/A,,Mostly Cloudy,0,2013-05-08 12:35:00
7:55 AM,59.4,59.2,99,30.04,10.0,Calm,Calm,-,N/A,,Overcast,0,2013-05-08 12:55:00
8:15 AM,60.3,59.9,99,30.04,10.0,Calm,Calm,-,N/A,,Overcast,0,2013-05-08 13:15:00
8:35 AM,61.9,60.8,96,30.04,10.0,Calm,Calm,-,N/A,,Mostly Cloudy,0,2013-05-08 13:35:00
8:55 AM,63.7,61.3,92,30.04,10.0,West,3.5,-,N/A,,Overcast,280,2013-05-08 13:55:00
9:15 AM,65.3,61.7,88,30.05,10.0,Calm,Calm,-,N/A,,Overcast,0,2013-05-08 14:15:00
9:35 AM,66.2,62.1,86,30.05,10.0,WSW,3.5,-,N/A,,Overcast,250,2013-05-08 14:35:00
9:55 AM,68.2,63.5,85,30.05,10.0,West,3.5,-,N/A,,Overcast,270,2013-05-08 14:55:00
10:15 AM,69.3,61.7,77,30.04,10.0,Calm,Calm,-,N/A,,Scattered Clouds,0,2013-05-08 15:15:00
10:35 AM,71.2,61.9,72,30.05,10.0,North,3.5,-,N/A,,Clear,10,2013-05-08 15:35:00
10:55 AM,72.1,61.9,70,30.05,10.0,Calm,Calm,-,N/A,,Scattered Clouds,0,2013-05-08 15:55:00
11:15 AM,73.6,62.2,68,30.05,10.0,NW,4.6,-,N/A,,Mostly Cloudy,310,2013-05-08 16:15:00
11:35 AM,74.5,61.9,65,30.05,10.0,NNW,4.6,-,N/A,,Scattered Clouds,330,2013-05-08 16:35:00
11:55 AM,75.7,62.1,62,30.04,10.0,North,4.6,-,N/A,,Clear,10,2013-05-08 16:55:00
12:15 PM,75.7,61.5,61,30.04,10.0,NE,3.5,-,N/A,,Scattered Clouds,40,2013-05-08 17:15:00
12:35 PM,77.2,61.3,58,30.04,10.0,NNW,6.9,-,N/A,,Scattered Clouds,330,2013-05-08 17:35:00
12:55 PM,77.4,60.6,56,30.03,10.0,West,6.9,-,N/A,,Scattered Clouds,280,2013-05-08 17:55:00
1:15 PM,77.9,60.8,56,30.04,10.0,NW,8.1,-,N/A,,Mostly Cloudy,310,2013-05-08 18:15:00
1:35 PM,77.9,59.7,53,30.03,10.0,NNE,3.5,-,N/A,,Mostly Cloudy,20,2013-05-08 18:35:00
1:55 PM,77.9,60.4,55,30.03,10.0,NNW,6.9,-,N/A,,Scattered Clouds,330,2013-05-08 18:55:00
2:15 PM,77.0,60.1,56,30.02,10.0,West,4.6,-,N/A,,Scattered Clouds,280,2013-05-08 19:15:00
2:35 PM,79.0,58.3,49,30.02,10.0,North,5.8,-,N/A,,Scattered Clouds,360,2013-05-08 19:35:00
2:55 PM,79.0,58.6,50,30.02,10.0,NW,4.6,-,N/A,,Scattered Clouds,320,2013-05-08 19:55:00
3:15 PM,79.7,56.8,45,30.01,10.0,NNW,5.8,-,N/A,,Clear,340,2013-05-08 20:15:00
3:35 PM,79.9,57.9,47,30.00,10.0,WNW,6.9,-,N/A,,Clear,300,2013-05-08 20:35:00
3:55 PM,79.5,59.4,50,30.00,10.0,NNW,3.5,-,N/A,,Scattered Clouds,330,2013-05-08 20:55:00
4:15 PM,80.1,57.9,47,30.00,10.0,West,3.5,-,N/A,,Scattered Clouds,280,2013-05-08 21:15:00
4:35 PM,79.7,57.6,47,29.99,10.0,Calm,Calm,-,N/A,,Scattered Clouds,0,2013-05-08 21:35:00
4:55 PM,79.5,58.5,48,29.99,10.0,NW,6.9,-,N/A,,Clear,320,2013-05-08 21:55:00
5:15 PM,78.4,57.6,49,29.99,10.0,NNW,4.6,-,N/A,,Clear,330,2013-05-08 22:15:00
5:35 PM,79.2,58.1,48,29.99,10.0,NW,4.6,-,N/A,,Clear,310,2013-05-08 22:35:00
5:55 PM,78.8,57.7,48,29.99,10.0,NNW,4.6,-,N/A,,Clear,330,2013-05-08 22:55:00
6:15 PM,77.9,59.9,54,29.99,10.0,NNW,3.5,-,N/A,,Clear,340,2013-05-08 23:15:00
6:35 PM,77.0,61.5,59,29.99,10.0,NNW,3.5,-,N/A,,Clear,340,2013-05-08 23:35:00
6:55 PM,74.8,61.9,64,29.99,10.0,Calm,Calm,-,N/A,,Clear,0,2013-05-08 23:55:00
7:15 PM,75.2,58.5,56,29.99,10.0,Calm,Calm,-,N/A,,Clear,0,2013-05-09 00:15:00
7:35 PM,73.6,59.2,61,30.00,10.0,Calm,Calm,-,N/A,,Clear,0,2013-05-09 00:35:00
7:55 PM,72.0,59.9,66,30.00,10.0,Calm,Calm,-,N/A,,Clear,0,2013-05-09 00:55:00
8:15 PM,70.7,59.0,66,30.00,10.0,Calm,Calm,-,N/A,,Clear,0,2013-05-09 01:15:00
8:35 PM,69.1,59.5,72,30.01,10.0,Calm,Calm,-,N/A,,Clear,0,2013-05-09 01:35:00
8:55 PM,68.9,59.9,73,30.01,10.0,Calm,Calm,-,N/A,,Clear,0,2013-05-09 01:55:00
9:15 PM,66.7,61.2,82,30.02,10.0,SW,4.6,-,N/A,,Clear,220,2013-05-09 02:15:00
9:35 PM,66.0,60.8,83,30.02,10.0,Calm,Calm,-,N/A,,Clear,0,2013-05-09 02:35:00
9:55 PM,65.1,61.2,87,30.03,10.0,Calm,Calm,-,N/A,,Clear,0,2013-05-09 02:55:00
10:15 PM,64.2,61.7,91,30.03,10.0,SSW,3.5,-,N/A,,Clear,210,2013-05-09 03:15:00
10:35 PM,63.5,61.2,92,30.03,10.0,Calm,Calm,-,N/A,,Clear,0,2013-05-09 03:35:00
11:15 PM,62.8,61.0,94,30.02,10.0,SSW,3.5,-,N/A,,Clear,210,2013-05-09 04:15:00
11:55 PM,61.7,59.9,94,30.02,10.0,Calm,Calm,-,N/A,,Clear,0,2013-05-09 04:55:00